EW6239 Weather Reports


time (UTC)temp
C
wind
direction
speed
KPH
gust
KPH
rain 1hr
cm
rain 24hr
cm
rain mn
cm
humidity
%
barometer
mb
20260510060516 10 0.0 3.2 0.00 0.05 0.00 91 998.2
20260510055557 10 0.0 3.2 0.00 0.05 0.00 91 998.1
20260510054516 10 225 1.6 4.8 0.00 0.05 0.00 91 998.0
20260510053516 10 225 1.6 4.8 0.00 0.05 0.00 91 997.9
20260510052516 10 225 3.2 6.4 0.00 0.05 0.00 91 997.9
20260510051517 10 225 1.6 4.8 0.00 0.05 0.00 91 997.8
20260510050537 11 225 1.6 4.8 0.00 0.05 0.00 91 997.7
20260510045516 11 225 1.6 3.2 0.00 0.05 0.00 91 997.5
20260510044516 11 225 1.6 4.8 0.00 0.05 0.00 91 997.4
20260510043516 11 225 1.6 4.8 0.00 0.05 0.00 90 997.2
20260510042536 11 225 1.6 4.8 0.00 0.05 0.00 91 997.0
20260510041516 11 225 1.6 4.8 0.00 0.05 0.00 90 996.8
20260510040516 11 225 1.6 6.4 0.00 0.05 0.00 90 996.7
20260510035517 11 225 1.6 4.8 0.03 0.05 0.05 90 996.5
20260510034517 11 225 3.2 8.0 0.03 0.05 0.05 90 996.7
20260510033517 12 203 3.2 8.0 0.03 0.05 0.05 90 996.8
20260510032517 12 225 1.6 4.8 0.03 0.05 0.05 90 996.8
20260510031517 12 225 3.2 8.0 0.05 0.05 0.05 90 996.8
20260510030517 12 225 1.6 6.4 0.05 0.05 0.05 90 996.9
20260510025517 12 225 3.2 11.3 0.05 0.05 0.05 89 996.8
20260510024516 12 225 3.2 8.0 0.05 0.05 0.05 89 996.5
20260510023517 12 225 4.8 12.9 0.05 0.05 0.05 88 996.5
20260510022517 12 225 4.8 11.3 0.05 0.05 0.05 86 996.7
20260510021517 13 225 6.4 14.5 0.03 0.03 0.03 83 996.4
20260510020517 13 225 4.8 12.9 0.00 0.00 0.00 79 996.2
20260510015517 14 225 6.4 12.9 0.00 0.00 0.00 72 996.0
20260510014517 15 203 6.4 11.3 0.00 0.00 0.00 66 995.8
20260510013517 15 203 6.4 14.5 0.00 0.00 0.00 64 995.9
20260510012517 15 225 6.4 11.3 0.00 0.00 0.00 63 996.1
20260510011517 15 203 4.8 9.7 0.00 0.00 0.00 61 996.1
20260510010517 15 225 4.8 9.7 0.00 0.00 0.00 60 996.1
20260510005517 15 203 4.8 9.7 0.00 0.00 0.00 58 996.1
20260510004517 15 225 4.8 8.0 0.00 0.00 0.00 57 996.1
20260510003517 15 203 3.2 9.7 0.00 0.00 0.00 55 996.2
20260510002517 15 203 4.8 12.9 0.00 0.00 0.00 53 996.3
20260510001537 15 203 4.8 16.1 0.00 0.00 0.00 53 996.3
20260510000516 16 225 3.2 6.4 0.00 0.00 0.00 52 996.5
20260509235516 16 225 4.8 11.3 0.00 0.00 0.00 50 996.7
20260509234517 16 203 4.8 8.0 0.00 0.00 0.00 48 996.7
20260509233516 16 225 4.8 12.9 0.00 0.00 0.00 46 996.8
20260509232516 16 203 4.8 11.3 0.00 0.00 0.00 45 997.0
20260509231516 16 248 3.2 8.0 0.00 0.00 0.00 46 997.0
20260509230516 16 225 4.8 19.3 0.00 0.00 0.00 46 996.9
20260509225516 16 203 3.2 9.7 0.00 0.00 0.00 46 997.0
20260509224516 17 225 3.2 11.3 0.00 0.00 0.00 47 996.9
20260509223516 17 203 3.2 11.3 0.00 0.00 0.00 48 996.8
20260509222516 17 225 4.8 11.3 0.00 0.00 0.00 46 996.7
20260509221516 17 225 4.8 9.7 0.00 0.00 0.00 45 996.6
20260509220516 17 225 3.2 8.0 0.00 0.00 0.00 44 996.7
20260509215516 17 225 4.8 14.5 0.00 0.00 0.00 42 996.5
20260509214516 17 225 4.8 11.3 0.00 0.00 0.00 43 996.5
20260509213516 18 225 4.8 11.3 0.00 0.00 0.00 41 996.8
20260509212516 18 225 6.4 16.1 0.00 0.00 0.00 43 996.7
20260509211516 18 225 8.0 17.7 0.00 0.00 0.00 41 996.8
20260509210516 18 225 3.2 11.3 0.00 0.00 0.00 41 996.9
20260509205516 18 225 9.7 22.5 0.00 0.00 0.00 42 996.8
20260509204516 18 225 6.4 20.9 0.00 0.00 0.00 41 997.0
20260509203516 18 225 6.4 17.7 0.00 0.00 0.00 41 997.0
20260509202516 18 203 9.7 24.1 0.00 0.00 0.00 38 997.0
20260509201516 18 225 8.0 16.1 0.00 0.00 0.00 37 997.2
20260509200518 19 225 6.4 17.7 0.00 0.00 0.00 35 997.3
20260509195518 19 225 9.7 24.1 0.00 0.00 0.00 33 997.3
20260509194516 19 225 8.0 19.3 0.00 0.00 0.00 31 997.2
20260509193518 20 225 8.0 16.1 0.00 0.00 0.00 29 997.3
20260509192518 20 225 8.0 19.3 0.00 0.00 0.00 33 997.6
20260509191518 20 225 8.0 22.5 0.00 0.00 0.00 32 997.7
20260509190518 19 203 8.0 19.3 0.00 0.00 0.00 32 997.7
20260509185518 19 225 8.0 17.7 0.00 0.00 0.00 29 997.9
20260509184518 19 225 8.0 14.5 0.00 0.00 0.00 30 998.0
20260509183518 19 203 9.7 25.7 0.00 0.00 0.00 29 998.2
20260509182538 19 180 8.0 16.1 0.00 0.00 0.00 30 998.5
20260509181518 19 180 8.0 19.3 0.00 0.00 0.00 30 998.7
20260509180538 20 248 6.4 16.1 0.00 0.00 0.00 32 998.9
20260509175518 20 203 8.0 24.1 0.00 0.00 0.00 30 999.0
20260509174518 20 225 11.3 25.7 0.00 0.00 0.00 30 999.2
20260509173518 20 225 3.2 11.3 0.00 0.00 0.00 33 999.2
20260509172518 19 225 6.4 16.1 0.00 0.00 0.00 35 999.3
20260509171518 19 225 6.4 14.5 0.00 0.00 0.00 30 999.2
20260509170518 19 225 9.7 17.7 0.00 0.00 0.00 30 999.6
20260509165518 19 225 6.4 11.3 0.00 0.00 0.00 34 999.8
20260509164517 19 225 4.8 16.1 0.00 0.00 0.00 33 999.9
20260509163518 19 225 8.0 20.9 0.00 0.00 0.00 33 1000.2
20260509162518 19 203 4.8 11.3 0.00 0.00 0.00 33 1000.5
20260509161558 18 225 6.4 14.5 0.00 0.00 0.00 33 1000.6
20260509160517 18 225 9.7 22.5 0.00 0.00 0.00 32 1000.6
20260509155518 18 225 4.8 12.9 0.00 0.00 0.00 36 1000.9
20260509154517 18 225 8.0 20.9 0.00 0.00 0.00 35 1001.0
20260509153518 18 225 8.0 17.7 0.00 0.00 0.00 38 1001.3
20260509152538 18 225 4.8 14.5 0.00 0.00 0.00 37 1001.6
20260509151518 18 225 6.4 16.1 0.00 0.00 0.00 37 1001.7
20260509150518 17 225 6.4 16.1 0.00 0.00 0.00 39 1001.8
20260509145517 17 225 3.2 9.7 0.00 0.00 0.00 41 1002.0
20260509144518 17 225 3.2 6.4 0.00 0.00 0.00 41 1002.0
20260509143518 17 225 8.0 16.1 0.00 0.00 0.00 42 1002.1
20260509142558 16 225 4.8 8.0 0.00 0.00 0.00 47 1002.1
20260509141517 16 225 4.8 14.5 0.00 0.00 0.00 45 1002.3
20260509140517 15 225 4.8 12.9 0.00 0.00 0.00 49 1002.3
20260509135518 15 225 4.8 9.7 0.00 0.00 0.00 49 1002.3
20260509134517 15 225 4.8 12.9 0.00 0.00 0.00 49 1002.3
20260509133517 13 203 4.8 8.0 0.00 0.00 0.00 51 1002.4
20260509132517 13 225 3.2 8.0 0.00 0.00 0.00 53 1002.5
20260509131517 12 203 4.8 9.7 0.00 0.00 0.00 54 1002.7
20260509130517 11 203 3.2 6.4 0.00 0.00 0.00 56 1002.8
20260509125517 11 225 4.8 9.7 0.00 0.00 0.00 56 1002.9
20260509124517 10 203 3.2 12.9 0.00 0.00 0.00 61 1003.0
20260509123517 9 180 1.6 4.8 0.00 0.00 0.00 63 1003.0
20260509122517 8 225 3.2 8.0 0.00 0.00 0.00 64 1003.1
20260509121517 7 225 1.6 8.0 0.00 0.00 0.00 68 1003.1
20260509120517 7 225 3.2 6.4 0.00 0.00 0.00 72 1003.0
20260509115517 6 225 3.2 6.4 0.00 0.00 0.00 73 1003.0
20260509114517 5 225 3.2 6.4 0.00 0.00 0.00 76 1003.0
20260509113517 5 225 3.2 6.4 0.00 0.00 0.00 80 1002.9
20260509112517 4 225 1.6 3.2 0.00 0.00 0.00 82 1002.9
20260509111517 3 225 1.6 6.4 0.00 0.00 0.00 82 1002.8
20260509110517 3 225 1.6 4.8 0.00 0.00 0.00 82 1002.7
20260509105517 3 225 1.6 3.2 0.00 0.00 0.00 82 1002.6
20260509104517 3 225 3.2 4.8 0.00 0.00 0.00 83 1002.5
20260509103517 2 225 3.2 8.0 0.00 0.00 0.00 84 1002.4
20260509102537 2 225 3.2 4.8 0.00 0.00 0.00 85 1002.5
20260509101517 2 225 1.6 4.8 0.00 0.00 0.00 84 1002.4
20260509100517 2 0.0 0.0 0.00 0.00 0.00 84 1002.5
20260509095517 2 0.0 0.0 0.00 0.00 0.00 83 1002.5
20260509094517 2 0.0 0.0 0.00 0.00 0.00 82 1002.4
20260509093517 2 0.0 0.0 0.00 0.00 0.00 81 1002.4
20260509092517 2 0.0 0.0 0.00 0.00 0.00 81 1002.4
20260509091517 2 0.0 1.6 0.00 0.00 0.00 81 1002.4
20260509090537 3 0.0 3.2 0.00 0.00 0.00 80 1002.4
20260509085517 3 225 1.6 4.8 0.00 0.00 0.00 80 1002.4
20260509084517 3 225 1.6 4.8 0.00 0.00 0.00 80 1002.4
20260509083517 3 0.0 1.6 0.00 0.00 0.00 78 1002.4
20260509082517 3 0.0 0.0 0.00 0.00 0.00 78 1002.5
20260509081517 3 0.0 0.0 0.00 0.00 0.00 77 1002.6
20260509080537 3 0.0 0.0 0.00 0.00 0.00 77 1002.5
20260509075537 4 0.0 1.6 0.00 0.00 0.00 77 1002.6
20260509074517 4 0.0 1.6 0.00 0.00 0.00 76 1002.6
20260509073517 4 0.0 3.2 0.00 0.00 0.00 75 1002.6
20260509072517 5 225 1.6 3.2 0.00 0.00 0.00 74 1002.6
20260509071517 5 225 1.6 4.8 0.00 0.00 0.00 74 1002.7
20260509070517 5 225 1.6 4.8 0.00 0.00 0.00 72 1002.6
20260509065537 5 225 1.6 3.2 0.00 0.00 0.00 72 1002.6
20260509064638 5 225 1.6 4.8 0.00 0.00 0.00 71 1002.7
20260509063517 5 225 1.6 4.8 0.00 0.00 0.00 70 1002.8
20260509062537 6 225 1.6 4.8 0.00 0.00 0.00 69 1002.8
20260509061537 6 225 1.6 4.8 0.00 0.00 0.00 68 1002.8